#timestamp,LO_Frequency,Hit,StdDev 
1685613615.9,286046979.6,N
1685613635.7,286046980.0,N
1685613655.5,286046976.1,Y
1685613675.4,286046990.4,P
1685613695.2,286046992.2,N
1685613715.0,286046993.7,N
1685613715.9,286046993.7,N
1685613735.8,286046993.8,N
1685613755.6,286046993.3,N
1685613775.5,286046998.0,N
1685613795.3,286046995.9,N
1685613815.1,286046995.5,N
1685613835.9,286046994.7,N
1685613855.7,286046989.8,N
1685613875.5,286046988.2,Y
1685613895.4,286046991.0,P
1685613915.2,286046985.8,P
1685613935.1,286046979.8,P
1685613936.0,286046979.8,Y
1685613955.8,286046991.1,P
1685613975.6,286046988.0,P
1685613995.5,286046987.1,P
1685614015.3,286046986.1,Y
1685614035.1,286046997.9,P
1685614055.9,286046997.4,N
1685614075.7,286046992.2,N
1685614095.6,286046985.9,Y
1685614115.4,286046990.4,P
1685614135.2,286046988.6,P
1685614155.1,286046992.6,P
1685614156.0,286046992.6,Y
1685614175.8,286046998.5,P
1685614195.7,286046994.9,N
1685614215.5,286046996.6,N
1685614235.3,286046994.6,N
1685614255.2,286046992.2,Y
1685614275.0,286046994.7,P
1685614275.9,286046994.7,P
1685614295.7,286046992.2,P
1685614315.6,286046988.9,Y
1685614335.4,286046991.7,P
1685614355.3,286046986.9,P
1685614375.1,286046989.9,P
1685614376.0,286046989.9,Y
1685614395.8,286046999.9,P
1685614415.7,286047000.2,N
1685614435.5,286047001.7,N
1685614455.4,286047002.2,N
1685614475.2,286047000.8,N
1685614495.0,286046993.7,N
1685614495.9,286046993.7,N
1685614515.8,286046990.4,N
1685614535.6,286046990.0,N
1685614555.4,286046987.1,N
1685614575.3,286046986.5,N
1685614595.1,286046984.5,N
1685614615.9,286046983.4,N
1685614635.7,286046987.7,N
1685614655.5,286046992.9,N
1685614675.4,286046997.1,N
1685614695.2,286046997.0,N
1685614715.0,286046995.4,N
1685614715.9,286046995.4,N
1685614735.8,286046998.9,N
1685614755.6,286047002.7,N
1685614775.5,286047004.0,N
1685614795.3,286047001.7,N
1685614815.1,286047000.5,N
1685614835.9,286047000.8,N
1685614855.7,286047001.7,N
1685614875.5,286046998.3,N
1685614895.4,286047000.5,N
1685614915.2,286047004.4,N
1685614935.0,286047004.5,N
1685614936.0,286047004.5,N
1685614955.8,286047006.5,N
1685614975.6,286047009.2,N
1685614995.5,286047008.4,N
1685615015.3,286047001.4,N
1685615035.1,286046990.1,N
1685615055.9,286046982.6,N
1685615075.7,286046977.8,N
1685615095.5,286046981.7,N
1685615115.4,286046984.0,N
1685615135.2,286046990.2,N
1685615155.1,286046995.6,N
1685615156.0,286046995.6,N
1685615175.8,286047003.4,N
1685615195.6,286047008.3,N
1685615215.5,286047012.2,N
1685615235.3,286047011.4,N
1685615255.1,286047011.5,N
1685615275.9,286047013.9,N
1685615295.7,286047009.5,N
1685615315.6,286047005.6,N
1685615335.4,286047000.6,N
1685615355.2,286046996.4,N
1685615375.1,286046993.6,N
1685615376.0,286046993.6,N
1685615395.8,286046992.3,N
1685615415.7,286046995.8,N
1685615435.5,286046997.0,N
1685615455.3,286046996.6,N
1685615475.2,286046997.2,N
1685615495.0,286046997.3,N
1685615495.9,286046997.3,N
1685615515.7,286046997.9,N
1685615535.6,286046996.1,N
1685615555.4,286046994.2,N
1685615575.3,286046990.7,N
1685615595.1,286046990.0,N
1685615596.0,286046990.0,N
1685615615.8,286046986.6,N
1685615635.7,286046985.7,N
1685615655.5,286046985.7,N
1685615675.3,286046984.5,N
1685615695.2,286046983.3,N
1685615715.0,286046980.9,N
1685615715.9,286046980.9,N
1685615735.8,286046982.9,N
1685615755.6,286046982.5,N
1685615775.4,286046975.7,N
1685615795.3,286046975.6,N
1685615815.1,286046969.3,Y
1685615835.8,286046975.7,P
1685615855.7,286046981.7,N
1685615875.5,286046981.7,N
1685615895.4,286046981.8,Y
1685615915.2,286046998.2,P
1685615935.0,286046997.3,N
1685615935.9,286046997.3,N
1685615955.8,286046997.0,N
1685615975.6,286047002.0,N
1685615995.4,286047006.0,N
1685616015.3,286047006.8,N
1685616035.1,286047010.8,N
1685616055.9,286047008.0,N
1685616075.7,286047008.0,N
1685616095.5,286047000.8,N
1685616115.4,286046999.8,N
1685616135.2,286046997.2,N
1685616155.0,286046992.1,N
1685616155.9,286046992.1,N
1685616175.8,286046991.7,N
1685616195.6,286046994.2,N
1685616215.5,286046991.9,N
1685616235.3,286046994.2,N
1685616255.1,286046996.3,N
1685616275.9,286046992.9,N
1685616295.7,286046994.6,N
1685616315.5,286046994.5,N
1685616335.4,286046995.4,N
1685616355.2,286046999.2,N
1685616375.1,286046999.2,N
1685616376.0,286046999.2,N
1685616395.8,286046999.0,N
1685616415.6,286046999.9,N
1685616435.5,286046999.1,N
1685616455.3,286046998.0,N
1685616475.1,286046992.9,N
1685616495.9,286046983.5,Y
1685616515.7,286046980.7,P
1685616535.6,286046977.4,N
1685616555.4,286046975.4,N
1685616575.2,286046973.3,N
1685616595.1,286046967.9,Y
1685616596.0,286046967.9,P
1685616615.8,286046990.9,N
1685616635.7,286046989.1,N
1685616655.5,286046991.7,N
1685616675.3,286046992.6,N
1685616695.2,286046988.3,N
1685616715.9,286046980.8,N
1685616735.7,286046976.3,Y
1685616755.6,286046988.1,P
1685616775.4,286046988.4,P
1685616795.3,286046986.4,P
1685616815.1,286046985.3,Y
1685616816.0,286046985.3,P
1685616835.8,286047005.7,P
1685616855.7,286047009.4,N
1685616875.5,286047011.6,N
1685616895.3,286047012.5,N
1685616915.2,286047017.8,N
1685616935.0,286047021.3,N
1685616935.9,286047021.3,N
1685616955.8,286047020.9,N
1685616975.6,286047015.7,N
1685616995.4,286047016.5,N
1685617015.3,286047023.0,N
1685617035.1,286047024.0,N
1685617055.8,286047025.4,N
1685617075.7,286047025.6,N
1685617095.5,286047026.2,N
1685617115.4,286047025.1,N
1685617135.2,286047023.5,N
1685617155.0,286047023.1,N
1685617155.9,286047023.1,N
1685617175.8,286047019.8,N
1685617195.6,286047019.1,N
